Regional Weather Roundup
Issued by NWS

Home | Current Version | Previous Version | Graphics & Text | Print | Product List | Glossary On
Versions: 1 2 3 4 5 6 7 8 9 10 11 12 13 14 15 16 17 18 19 20 21 22 23 24 25 26 27 28 29 30 31 32 33 34 35 36 37 38 39 40 41 42 43 44 45 46 47 48 49 50
000
ASUS43 KFSD 272002
RWRSD

WEATHER ROUNDUP FOR SOUTH DAKOTA
NATIONAL WEATHER SERVICE SIOUX FALLS SD
300 PM CDT SAT AUG 27 2016

NOTE: "FAIR" INDICATES FEW OR NO CLOUDS BELOW 12,000 FEET WITH NO
SIGNIFICANT WEATHER AND/OR OBSTRUCTIONS TO VISIBILITY.


SDZ001>005-009-010-012>017-272100-
NORTHWEST AND NORTH CENTRAL SOUTH DAKOTA

CITY           SKY/WX    TMP DP  RH WIND       PRES   REMARKS
BUFFALO          N/A     76  48  37 SE8       29.86F
FAITH            N/A     79  52  38 S13       29.92S
MOBRIDGE       SUNNY     81  54  39 SE9       29.89F
$$

SDZ012>016-024>037-041>051-057-063-072>074-272100-
SOUTHWEST AND SOUTH CENTRAL SOUTH DAKOTA

CITY           SKY/WX    TMP DP  RH WIND       PRES   REMARKS
RAPID CTY ARPT SUNNY     79  55  43 SE13      29.93F
PIERRE         SUNNY     79  53  40 VRB3      29.91F
CUSTER         SUNNY     72  41  32 VRB7G20   30.06S
ELLSWORTH AFB  SUNNY     79  56  45 S14         N/A
PHILIP         SUNNY     80  57  45 S9        29.92F
PINE RIDGE     SUNNY     80  54  40 SW7       29.97S
WINNER         FAIR      85  56  37 S9        29.94F
$$

SDZ004>011-016>023-039-040-272100-
NORTHEAST SOUTH DAKOTA

CITY           SKY/WX    TMP DP  RH WIND       PRES   REMARKS
ABERDEEN       MOSUNNY   77  61  57 S13       29.93F
WATERTOWN      SUNNY     74  60  61 S13       29.97F
BROOKINGS      PTSUNNY   70  60  70 S7        29.99S
$$

SDZ017-020-022-023-036>040-048>070-272100-
SOUTHEAST SOUTH DAKOTA

CITY           SKY/WX    TMP DP  RH WIND       PRES   REMARKS
SIOUX FALLS    MOSUNNY   73  62  68 S3        29.99F
HURON          MOSUNNY   77  62  59 S9        29.94F
CHAMBERLAIN    SUNNY     84  54  35 SW6       29.94F
MITCHELL       SUNNY     80  61  52 SW9       29.95F
YANKTON        MOSUNNY   79  61  53 S9        29.96F
$$

ABBREVIATIONS USED IN REMARKS
   TC - TEMPERATURE IN CELSIUS
  WCI - WIND CHILL INDEX
   HX - HEAT INDEX
  VSB - VISIBILITY





USA.gov is the U.S. government's official web portal to all federal, state and local government web resources and services.